timestamp,surface_pressure_avg,surface_temp_avg,battery_voltage,lat,long
2020-12-12 00:09:01+00:00,253.5264,6.2,12.73,47.84626,-54.09684
2020-12-12 00:19:01+00:00,244.7714,6.18,12.73,47.84626,-54.09684
2020-12-12 00:29:01+00:00,244.0131,6.2,12.73,47.84626,-54.09684
2020-12-12 00:39:01+00:00,237.5281,6.2,12.73,47.84626,-54.09684
2020-12-12 00:49:01+00:00,227.9314,6.2,12.73,47.84626,-54.09684
2020-12-12 00:59:01+00:00,225.0049,6.2,12.73,47.84626,-54.09684
2020-12-12 01:09:01+00:00,220.4381,6.22,12.73,47.84626,-54.09684
2020-12-12 01:19:01+00:00,209.6781,6.25,12.65,47.84626,-54.09684
2020-12-12 01:29:01+00:00,204.5165,6.2,12.65,47.84626,-54.09684
2020-12-12 01:39:01+00:00,205.3115,6.2,12.65,47.84626,-54.09684
2020-12-12 01:49:01+00:00,197.4714,6.18,12.65,47.84626,-54.09684
2020-12-12 01:59:01+00:00,188.3682,6.05,12.65,47.84626,-54.09684
2020-12-12 02:09:01+00:00,190.1765,6.0,12.65,47.84626,-54.09684
2020-12-12 02:19:01+00:00,190.9598,6.0,12.65,47.84626,-54.09684
2020-12-12 02:29:01+00:00,185.2398,6.0,12.65,47.84626,-54.09684
2020-12-12 02:39:01+00:00,184.7631,5.97,12.65,47.84626,-54.09684
2020-12-12 02:49:01+00:00,189.0047,6.0,12.65,47.84626,-54.09684
2020-12-12 02:59:01+00:00,186.0314,6.08,12.65,47.84626,-54.09684
2020-12-12 03:09:01+00:00,182.7681,5.99,12.65,47.84626,-54.09684
2020-12-12 03:19:01+00:00,186.9798,5.99,12.65,47.84626,-54.09684
2020-12-12 03:29:01+00:00,190.4248,6.0,12.65,47.84626,-54.09684
2020-12-12 03:39:01+00:00,191.4048,6.03,12.65,47.84626,-54.09684
2020-12-12 03:49:01+00:00,194.9531,6.09,12.65,47.84626,-54.09684
2020-12-12 03:59:01+00:00,200.0515,6.1,12.65,47.84626,-54.09684
2020-12-12 04:09:01+00:00,203.8665,6.3,12.65,47.84626,-54.09684
2020-12-12 04:19:01+00:00,205.7331,6.4,12.65,47.84626,-54.09684
2020-12-12 04:29:01+00:00,208.2347,6.4,12.65,47.84626,-54.09684
2020-12-12 04:39:01+00:00,213.8798,6.4,12.65,47.84626,-54.09684
2020-12-12 04:49:01+00:00,217.2914,6.43,12.65,47.84626,-54.09684
2020-12-12 04:59:01+00:00,222.0264,6.5,12.65,47.84626,-54.09684
2020-12-12 05:09:01+00:00,229.0598,6.5,12.65,47.84626,-54.09684
2020-12-12 05:19:01+00:00,235.2931,6.5,12.65,47.84626,-54.09684
2020-12-12 05:29:01+00:00,241.3881,6.5,12.65,47.84626,-54.09684
2020-12-12 05:39:01+00:00,249.553,6.5,12.65,47.84626,-54.09684
2020-12-12 05:49:01+00:00,256.7648,6.49,12.65,47.84626,-54.09684
2020-12-12 05:59:01+00:00,260.5797,6.46,12.65,47.84626,-54.09684
2020-12-12 06:09:01+00:00,265.1381,6.4,12.65,47.84626,-54.09684
2020-12-12 06:19:01+00:00,275.0731,6.4,12.65,47.84626,-54.09684
2020-12-12 06:29:01+00:00,284.5964,6.49,12.65,47.84626,-54.09684
2020-12-12 06:39:01+00:00,291.6547,6.5,12.65,47.84626,-54.09684
2020-12-12 06:49:01+00:00,298.203,6.5,12.65,47.84626,-54.09684
2020-12-12 06:59:01+00:00,310.903,6.5,12.65,47.84626,-54.09684
2020-12-12 07:09:01+00:00,322.9047,6.5,12.65,47.84626,-54.09684
2020-12-12 07:19:01+00:00,331.6364,6.5,12.65,47.84626,-54.09684
2020-12-12 07:29:01+00:00,334.583,6.5,12.65,47.84626,-54.09684
2020-12-12 07:39:01+00:00,344.848,6.49,12.65,47.84626,-54.09684
2020-12-12 07:49:01+00:00,354.4845,6.4,12.65,47.84626,-54.09684
2020-12-12 07:59:01+00:00,356.3179,6.4,12.65,47.84626,-54.09684
2020-12-12 08:09:01+00:00,359.1346,6.5,12.65,47.84626,-54.09684
2020-12-12 08:19:01+00:00,366.0379,6.59,12.65,47.84626,-54.09684
2020-12-12 08:29:01+00:00,369.9462,6.6,12.65,47.84626,-54.09684
2020-12-12 08:39:01+00:00,371.1096,6.6,12.65,47.84626,-54.09684
2020-12-12 08:49:01+00:00,372.5847,6.6,12.65,47.84626,-54.09684
2020-12-12 08:59:01+00:00,373.7662,6.6,12.65,47.84626,-54.09684
2020-12-12 09:09:01+00:00,375.2646,6.6,12.65,47.84626,-54.09684
2020-12-12 09:19:01+00:00,374.9546,6.6,12.65,47.84626,-54.09684
2020-12-12 09:29:01+00:00,376.0547,6.6,12.65,47.84626,-54.09684
2020-12-12 09:39:01+00:00,380.3712,6.6,12.65,47.84626,-54.09684
2020-12-12 09:49:01+00:00,382.0596,6.6,12.65,47.84626,-54.09684
2020-12-12 09:59:01+00:00,381.9178,6.6,12.65,47.84626,-54.09684
2020-12-12 10:09:01+00:00,376.1297,6.6,12.65,47.84626,-54.09684
2020-12-12 10:19:01+00:00,372.0496,6.6,12.57,47.84626,-54.09684
2020-12-12 10:29:01+00:00,369.923,6.6,12.57,47.84626,-54.09684
2020-12-12 10:39:01+00:00,368.4662,6.6,12.57,47.84626,-54.09684
2020-12-12 10:49:01+00:00,362.798,6.6,12.57,47.84626,-54.09684
2020-12-12 10:59:01+00:00,358.783,6.6,12.57,47.84626,-54.09684
2020-12-12 11:09:01+00:00,355.6312,6.6,12.57,47.84626,-54.09684
2020-12-12 11:19:01+00:00,350.3663,6.61,12.65,47.84626,-54.09684
2020-12-12 11:29:01+00:00,342.2729,6.63,12.65,47.84626,-54.09684
2020-12-12 11:39:01+00:00,335.5229,6.63,12.65,47.84626,-54.09684
2020-12-12 11:49:01+00:00,330.3781,6.62,12.65,47.84626,-54.09684
2020-12-12 11:59:01+00:00,319.8614,6.64,12.65,47.84626,-54.09684
2020-12-12 12:09:01+00:00,305.1163,6.65,12.65,47.84626,-54.09684
2020-12-12 12:19:01+00:00,293.858,6.64,12.73,47.84626,-54.09684
2020-12-12 12:29:01+00:00,285.7047,6.63,12.73,47.84626,-54.09684
2020-12-12 12:39:01+00:00,278.603,6.62,12.73,47.84626,-54.09684
2020-12-12 12:49:01+00:00,267.2765,6.61,12.73,47.84626,-54.09684
2020-12-12 12:59:01+00:00,258.4964,6.61,12.73,47.84626,-54.09684
2020-12-12 13:09:01+00:00,251.9514,6.6,12.73,47.84626,-54.09684
2020-12-12 13:19:01+00:00,245.8698,6.6,14.72,47.84626,-54.09684
2020-12-12 13:29:01+00:00,236.6265,6.6,14.72,47.84626,-54.09684
2020-12-12 13:39:01+00:00,227.9531,6.6,14.72,47.84626,-54.09684
2020-12-12 13:49:01+00:00,223.2331,6.6,14.72,47.84626,-54.09684
2020-12-12 13:59:01+00:00,218.6965,6.6,14.72,47.84626,-54.09684
2020-12-12 14:09:01+00:00,212.3031,6.6,14.72,47.84626,-54.09684
2020-12-12 14:19:01+00:00,209.2431,6.6,14.72,47.84626,-54.09684
2020-12-12 14:29:01+00:00,205.4714,6.63,14.72,47.84626,-54.09684
2020-12-12 14:39:01+00:00,198.1064,6.64,14.72,47.84626,-54.09684
2020-12-12 14:49:01+00:00,193.2747,6.62,14.72,47.84626,-54.09684
2020-12-12 14:59:01+00:00,190.7165,6.63,14.72,47.84626,-54.09684
2020-12-12 15:09:01+00:00,187.0615,6.66,14.72,47.84626,-54.09684
2020-12-12 15:19:01+00:00,180.7615,6.67,14.72,47.84626,-54.09684
2020-12-12 15:29:01+00:00,178.0498,6.67,14.72,47.84626,-54.09684
2020-12-12 15:39:01+00:00,181.1498,6.68,14.72,47.84626,-54.09684
2020-12-12 15:49:01+00:00,180.7014,6.68,14.72,47.84626,-54.09684
2020-12-12 15:59:01+00:00,178.6898,6.68,14.72,47.84626,-54.09684
2020-12-12 16:09:01+00:00,180.7614,6.68,14.72,47.84626,-54.09684
2020-12-12 16:19:01+00:00,183.7281,6.67,14.64,47.84626,-54.09684
2020-12-12 16:29:01+00:00,181.6815,6.66,14.64,47.84626,-54.09684
2020-12-12 16:39:01+00:00,181.3932,6.65,14.64,47.84626,-54.09684
2020-12-12 16:49:01+00:00,186.2648,6.61,14.64,47.84626,-54.09684
2020-12-12 16:59:01+00:00,188.5698,6.6,14.64,47.84626,-54.09684
2020-12-12 17:09:01+00:00,188.4948,6.6,14.64,47.84626,-54.09684
2020-12-12 17:19:01+00:00,190.2948,6.6,14.0,47.84626,-54.09684
2020-12-12 17:29:01+00:00,196.6298,6.6,14.0,47.84626,-54.09684
2020-12-12 17:39:01+00:00,199.8864,6.6,14.0,47.84626,-54.09684
2020-12-12 17:49:01+00:00,200.4932,6.6,14.0,47.84626,-54.09684
2020-12-12 17:59:01+00:00,204.3065,6.6,14.0,47.84626,-54.09684
2020-12-12 18:09:01+00:00,210.4814,6.6,14.0,47.84626,-54.09684
2020-12-12 18:19:01+00:00,215.4947,6.6,14.4,47.84626,-54.09684
2020-12-12 18:29:01+00:00,220.1864,6.6,14.4,47.84626,-54.09684
2020-12-12 18:39:01+00:00,223.1698,6.6,14.4,47.84626,-54.09684
2020-12-12 18:49:01+00:00,228.5664,6.6,14.4,47.84626,-54.09684
2020-12-12 18:59:01+00:00,234.7114,6.53,14.4,47.84626,-54.09684
2020-12-12 19:09:01+00:00,242.0847,6.5,14.4,47.84626,-54.09684
2020-12-12 19:19:01+00:00,250.0614,6.48,13.84,47.84626,-54.09684
2020-12-12 19:29:01+00:00,256.3314,6.4,13.84,47.84626,-54.09684
2020-12-12 19:39:01+00:00,263.4665,6.4,13.84,47.84626,-54.09684
2020-12-12 19:49:01+00:00,271.6297,6.4,13.84,47.84626,-54.09684
2020-12-12 19:59:01+00:00,280.3364,6.3,13.84,47.84626,-54.09684
2020-12-12 20:09:01+00:00,287.158,6.2,13.84,47.84626,-54.09684
2020-12-12 20:19:01+00:00,295.5663,6.2,13.29,47.84626,-54.09684
2020-12-12 20:29:01+00:00,301.3263,6.2,13.29,47.84626,-54.09684
2020-12-12 20:39:01+00:00,306.4529,6.12,13.29,47.84626,-54.09684
2020-12-12 20:49:01+00:00,314.5096,6.13,13.29,47.84626,-54.09684
2020-12-12 20:59:01+00:00,319.6964,6.17,13.29,47.84626,-54.09684
2020-12-12 21:09:01+00:00,323.618,6.2,13.29,47.84626,-54.09684
2020-12-12 21:19:01+00:00,326.1364,6.28,12.97,47.84626,-54.09684
2020-12-12 21:29:01+00:00,332.5946,6.3,12.97,47.84626,-54.09684
2020-12-12 21:39:01+00:00,335.2047,6.27,12.97,47.84626,-54.09684
2020-12-12 21:49:01+00:00,337.978,6.3,12.97,47.84626,-54.09684
2020-12-12 21:59:01+00:00,341.5096,6.4,12.97,47.84626,-54.09684
2020-12-12 22:09:01+00:00,344.9963,6.49,12.97,47.84626,-54.09684
2020-12-12 22:19:01+00:00,348.043,6.49,12.73,47.84626,-54.09684
2020-12-12 22:29:01+00:00,347.8096,6.48,12.73,47.84626,-54.09684
2020-12-12 22:39:01+00:00,345.6147,6.47,12.73,47.84626,-54.09684
2020-12-12 22:49:01+00:00,343.6013,6.5,12.73,47.84626,-54.09684
2020-12-12 22:59:01+00:00,338.9530000000001,6.5,12.73,47.84626,-54.09684
2020-12-12 23:09:01+00:00,339.30800000000005,6.5,12.73,47.84626,-54.09684
2020-12-12 23:19:01+00:00,336.4396,6.5,12.65,47.84626,-54.09684
2020-12-12 23:29:01+00:00,328.61300000000006,6.5,12.65,47.84626,-54.09684
2020-12-12 23:39:01+00:00,320.2313,6.5,12.65,47.84626,-54.09684
2020-12-12 23:49:01+00:00,312.7047,6.5,12.65,47.84626,-54.09684
2020-12-12 23:59:01+00:00,306.548,6.5,12.65,47.84626,-54.09684
